STARLINK-1774

decayed
NORAD ID: 46680 Int'l Des: 2020-073 Owner: SPXS Country: US Constellation: starlink
LEOCIRCULAR
Group

About STARLINK-1774

Description loading...

Altitude History

Altitude vs Time

uPlot chart will show altitude changes over time

Two-Line Element Set

1 46680U 20073L 24028.15547810 .66868100 12736-4 84100-3 0 9997
2 46680 53.0214 73.2312 0008844 356.1896 56.0878 16.49006033181704
Epoch: Jan 28, 2024 • Age: 14160 hours

Current Status

Position data unavailable
Launch Date Oct 18, 2020
Age 4.8 years
Decay Date Jan 28, 2024
Type internet

Technical Details

Classification Payload
Mass 260.00 kg
Dry Mass 248.00 kg
Total Mass 260.00 kg
Length 0.20 m
Diameter 2.80 m
Span 9.00 m
Shape Box + pan
Manufacturer SPXS
Bus Type Starlink
Phase Status Unknown Transfer Status
Owner/State SPXS/US

Large Constellations

Loading constellations...